[[{"header":{"parameterUnit":"m.s-1","parameterCategory":1,"la1":30.2991,"la2":30.254,"lo1":-89.0895,"lo2":-89.0444,"dx":0.0017,"dy":0.0017,"nx":28,"ny":28,"refTime":"2022-11-13T15:00:00:Z","depth":0,"parameterNumber":2,"parameterNumberName":"U-component_of_WINDS"},"data":[0,0,0,0,0,0,0,0,0,0,0,0,0,0,0,0,0,0,0,0,0,0,0,0,0,0,0,0,0,0,0,0,0,0,0,0,0,0,0,0,0,0,0,0,0,0,0,0,0,0,0,0,0,0,0,0,0,0,2.8159,2.816,0,2.8171,2.8171,2.8171,2.8091,2.8088,2.8086,2.8084,2.8098,2.8101,2.8103,0,0,0,0,0,0,0,0,0,0,0,0,0,2.8074,2.8076,2.8159,2.816,2.816,2.8171,2.8171,2.8171,2.8091,2.8088,2.8085,2.8083,2.8098,2.81,2.8103,0,0,0,0,0,0,0,0,0,0,0,0,0,2.8101,2.8077,2.8159,2.8121,2.8118,2.8171,2.8171,2.8171,2.8091,2.8088,2.8085,2.8081,2.8097,2.81,2.8104,2.8196,0,0,2.8115,2.8117,0,0,0,0,0,0,0,0,2.81,2.8104,2.8126,2.8124,2.812,2.8126,2.8146,2.818,2.8092,2.8102,2.8084,2.808,2.811,2.8113,2.8123,2.8196,2.8197,2.8116,2.8118,2.812,2.8121,0,0,0,0,0,0,0,2.8098,2.8103,2.8164,2.8127,2.8123,2.8105,2.8105,2.8152,2.8125,2.81,2.8095,2.8097,2.8108,2.8119,2.8122,2.8197,2.8116,2.8119,2.8121,2.8123,2.8354,2.8357,0,0,0,0,0,0,2.81,2.8102,2.8164,2.8164,2.8101,2.8109,2.8109,2.8127,2.8124,2.812,2.81,2.8093,2.8114,2.8118,2.8123,2.8234,2.812,2.8123,2.8125,2.835,2.8354,2.8359,0,0,0,0,0,0,2.8099,2.8107,2.8163,2.8132,2.8138,2.8115,2.8135,2.8129,2.814,2.8124,2.8119,2.8116,2.8112,2.8117,2.8179,2.8233,2.8125,2.8128,2.8345,2.8351,2.8357,2.8456,0,0,0,0,0,0,2.8097,2.8107,2.8139,2.8133,2.814,2.8218,2.8138,2.8132,2.8147,2.8138,2.8138,2.8134,2.811,2.8174,2.8183,2.8237,2.8131,2.834,2.8348,2.8355,2.8448,2.8464,2.8479,0,0,0,0,0,2.8094,2.8166,2.8141,2.8149,2.818,2.8221,2.8225,2.8195,2.8151,2.8186,2.8176,2.8134,2.8226,2.8181,2.8191,2.8246,2.8337,2.8346,2.8354,2.8441,2.8461,2.8478,0,0,0,0,0,0,2.8179,2.8164,2.8137,2.8208,2.8217,2.8208,2.8249,2.8216,2.8237,2.8228,2.819,2.8191,2.8261,2.8259,2.821,2.8338,2.8274,2.8285,2.8337,2.8356,2.8371,2.8371,2.8134,0,0,0,0,0,2.8206,2.8239,2.8225,2.829,2.8296,2.8273,2.8289,2.8265,2.8273,2.8276,2.827,2.828,2.8312,2.8333,2.8361,2.8447,2.8448,2.849,2.8506,2.8518,2.8529,2.858,2.86,2.8387,2.8387,2.8387,0,0,2.8262,2.8258,2.8281,2.8307,2.8311,2.8349,2.8276,2.8318,2.8347,2.8282,2.8342,2.8339,2.8348,2.8424,2.8457,2.8425,2.8589,2.8529,2.854,2.8544,2.8592,2.8612,2.863,2.8393,2.8392,2.8391,0,0,2.8385,2.8383,2.844,2.8446,2.8453,2.8438,2.8452,2.8448,2.8444,2.8503,2.8458,2.8492,2.8546,2.8556,2.8568,2.8701,2.8665,2.8711,2.8792,2.8843,2.886,2.8875,2.8927,2.8945,2.8721,2.8721,2.8721,0,2.8454,2.8508,2.8473,2.852,2.8535,2.8479,2.8539,2.8546,2.8563,2.8575,2.8538,2.8609,2.861,2.8691,2.8724,2.8734,2.8752,2.8711,2.886,2.8874,2.8888,2.8937,2.8956,2.8727,2.8726,2.8726,2.8725,0,2.8596,2.8635,2.868,2.8698,2.8718,2.877,2.8747,2.8771,2.8747,2.8737,2.8801,2.8802,2.8831,2.8848,2.8823,2.8927,2.8908,2.8866,2.8801,2.8915,2.8961,2.8979,2.8736,2.8733,2.8732,2.873,0,0,2.8771,2.8772,2.8789,2.88,2.8805,2.8836,2.8888,2.8917,2.8942,2.8955,2.9002,2.9051,2.9014,2.9028,2.9005,2.9049,2.9161,2.9003,2.9003,2.9036,2.9282,2.9316,2.9338,2.9137,2.914,2.9143,2.9282,0,2.8894,2.8982,2.8955,2.9046,2.9084,2.9034,2.9081,2.9091,2.9084,2.9118,2.911,2.9148,2.9094,2.9103,2.9144,2.9139,2.921,2.9128,2.9183,2.9186,2.9186,2.9361,2.9396,2.9527,2.93,2.9303,2.9305,0,2.9049,2.9071,2.9166,2.9171,2.9186,2.9228,2.9255,2.9287,2.93,2.9292,2.9311,2.928,2.9336,2.927,2.9349,2.9293,2.9315,2.9316,2.9321,2.9327,2.9254,2.9376,2.9568,2.9589,2.9332,2.933,2.9328,0,2.9173,2.9226,2.9291,2.9301,2.9306,2.9338,2.9342,2.9351,2.9373,2.9397,2.9412,2.9442,2.946,2.9486,2.9467,2.942,2.9551,2.9482,2.955,2.9551,2.9582,2.9581,2.9784,2.959,2.9589,2.9589,2.9589,0,2.9316,2.9377,2.9348,2.9388,2.9457,2.9426,2.9496,2.9495,2.9505,2.9547,2.9504,2.9545,2.9515,2.9554,2.9539,2.9611,2.9618,2.9616,2.9612,2.9622,2.9623,2.9638,2.963,2.9594,2.9593,2.9592,2.9591,0,2.9466,2.9448,2.9517,2.9518,2.952,2.9571,2.9573,2.9613,2.9604,2.9658,2.9669,2.9656,2.9701,2.9684,2.973,2.9721,2.9813,2.9795,2.9809,2.9806,2.9877,2.9873,3.0099,3.013,2.9912,2.9914,2.9916,0,2.956,2.9606,2.9613,2.9638,2.9646,2.9686,2.9708,2.9681,2.9707,2.9728,2.9766,2.9807,2.9839,2.9914,2.991,2.9947,2.9933,3.001,2.9938,2.9949,2.994,2.9939,2.9946,3.0025,3.0028,3.003,3.0031,0,2.973,2.972,2.9753,2.9785,2.9813,2.9837,2.9857,2.9881,2.9855,2.9887,2.9932,2.9957,3.0007,3.0051,3.0085,3.0092,3.006,3.0054,3.0073,3.0085,3.0093,3.0095,2.9853,3.0049,3.0047,3.0046,3.0045,3.0044,2.9858,2.9899,2.9912,2.9952,2.9965,2.9986,3.0025,3.0022,3.0059,3.0098,3.008,3.0134,3.0152,3.0195,3.0207,3.0252,3.0222,3.0248,3.0255,3.0263,3.0275,3.0084,3.0257,3.0257,3.0256,3.0256,3.0255,0,3.003,3.0037,3.0073,3.0104,3.0138,3.0103,3.0125,3.0156,3.0204,3.0222,3.0255,3.0311,3.0354,3.0355,3.0397,3.0433,3.042,3.0445,3.0444,3.0448,3.0296,3.0278,3.0455,3.0455,3.0455,3.0455,3.0455,3.0455,3.0123,3.0193,3.0186,3.0264,3.027,3.0323,3.034,3.0361,3.0376,3.044,3.0476,3.0476,3.0489,3.0532,3.0572,3.0571,3.0591,3.0623,3.0618,3.0477,3.0457,3.0438,3.0422,3.0626,3.0627,3.0766,3.0768,3.0769]},{"header":{"parameterUnit":"m.s-1","parameterCategory":1,"la1":30.2991,"la2":30.254,"lo1":-89.0895,"lo2":-89.0444,"dx":0.0017,"dy":0.0017,"nx":28,"ny":28,"refTime":"2022-11-13T15:00:00:Z","depth":0,"parameterNumber":3,"parameterNumberName":"V-component_of_WINDS"},"data":[0,0,0,0,0,0,0,0,0,0,0,0,0,0,0,0,0,0,0,0,0,0,0,0,0,0,0,0,0,0,0,0,0,0,0,0,0,0,0,0,0,0,0,0,0,0,0,0,0,0,0,0,0,0,0,0,0,0,-5.9833,-5.9831,0,-5.9635,-5.9633,-5.963,-5.9501,-5.95,-5.9499,-5.9499,-5.9277,-5.9272,-5.9267,0,0,0,0,0,0,0,0,0,0,0,0,0,-6.008,-6.0076,-5.9833,-5.9831,-5.9828,-5.9635,-5.9632,-5.963,-5.9501,-5.95,-5.9499,-5.9498,-5.9279,-5.9272,-5.9266,0,0,0,0,0,0,0,0,0,0,0,0,0,-5.9936,-6.0075,-5.9834,-5.9741,-5.9731,-5.9636,-5.9632,-5.9629,-5.9501,-5.95,-5.9499,-5.9498,-5.9281,-5.9273,-5.9265,-5.924,0,0,-5.9242,-5.9238,0,0,0,0,0,0,0,0,-5.9944,-5.9927,-5.9757,-5.9748,-5.9736,-5.9592,-5.9638,-5.9498,-5.9502,-5.9588,-5.9499,-5.9497,-5.9381,-5.9365,-5.933,-5.923,-5.922,-5.9241,-5.9236,-5.9233,-5.9231,0,0,0,0,0,0,0,-5.9954,-5.9935,-5.9754,-5.9755,-5.9742,-5.9703,-5.9681,-5.9611,-5.9493,-5.958,-5.9571,-5.955,-5.9375,-5.9338,-5.9324,-5.9217,-5.9241,-5.9234,-5.9229,-5.9226,-5.9076,-5.9077,0,0,0,0,0,0,-5.9982,-5.9944,-5.976,-5.9748,-5.984,-5.9699,-5.9675,-5.9639,-5.9494,-5.9471,-5.9551,-5.9545,-5.9352,-5.9333,-5.9315,-5.9272,-5.9233,-5.9226,-5.9221,-5.9076,-5.9076,-5.9077,0,0,0,0,0,0,-5.9987,-5.9967,-5.9768,-5.9843,-5.9815,-5.9697,-5.9657,-5.9636,-5.9599,-5.9472,-5.9448,-5.9536,-5.935,-5.9326,-5.9259,-5.9262,-5.9222,-5.9215,-5.9075,-5.9076,-5.9077,-5.9188,0,0,0,0,0,0,-5.9995,-5.997,-5.9965,-5.9845,-5.9812,-5.9723,-5.9657,-5.9633,-5.9588,-5.9577,-5.9451,-5.9429,-5.9347,-5.9272,-5.9252,-5.9251,-5.9209,-5.9074,-5.9075,-5.9077,-5.9183,-5.9192,-5.92,0,0,0,0,0,-6.0004,-6.0001,-5.9965,-5.9944,-5.9804,-5.9724,-5.9705,-5.9616,-5.9589,-5.9578,-5.9495,-5.9433,-5.9265,-5.9266,-5.9242,-5.9239,-5.9073,-5.9075,-5.9076,-5.9179,-5.9191,-5.92,0,0,0,0,0,0,-6.012,-5.9984,-5.9942,-5.9902,-5.9826,-5.9703,-5.9688,-5.9632,-5.9558,-5.955,-5.9437,-5.9409,-5.9352,-5.9288,-5.9291,-5.9202,-5.9161,-5.9158,-5.9247,-5.9257,-5.9265,-5.9281,-5.9202,0,0,0,0,0,-6.0142,-6.0095,-5.9975,-5.995,-5.9915,-5.9808,-5.977,-5.9708,-5.9623,-5.9588,-5.9501,-5.9414,-5.934,-5.9295,-5.9221,-5.9172,-5.9138,-5.9157,-5.9166,-5.9174,-5.9172,-5.9133,-5.9138,-5.9082,-5.9082,-5.9082,0,0,-6.0184,-6.0104,-6.008,-5.9971,-5.9906,-5.9852,-5.9782,-5.973,-5.9686,-5.9578,-5.9511,-5.9442,-5.9337,-5.9278,-5.9247,-5.9223,-5.9179,-5.9176,-5.9183,-5.9176,-5.9135,-5.9141,-5.9146,-5.9083,-5.9083,-5.9083,0,0,-6.0234,-6.0171,-6.0142,-6.0077,-5.998,-5.9908,-5.9901,-5.9785,-5.9737,-5.9668,-5.9584,-5.9526,-5.9405,-5.9332,-5.9279,-5.9294,-5.9231,-5.9272,-5.9317,-5.928,-5.9285,-5.9288,-5.9289,-5.9291,-5.9271,-5.9271,-5.9271,0,-6.0298,-6.0221,-6.0132,-6.0084,-6.0035,-5.9939,-5.9903,-5.9842,-5.9723,-5.9688,-5.9664,-5.9505,-5.9428,-5.9347,-5.9351,-5.9312,-5.9293,-5.9287,-5.9293,-5.9295,-5.9296,-5.9295,-5.9297,-5.9277,-5.9276,-5.9275,-5.9275,0,-6.0301,-6.0248,-6.0234,-6.0128,-6.0076,-6.0035,-5.9932,-5.989,-5.983,-5.9758,-5.9684,-5.9587,-5.949,-5.9465,-5.9405,-5.9373,-5.936,-5.9316,-5.9272,-5.9309,-5.9306,-5.9305,-5.9285,-5.9283,-5.9281,-5.928,0,0,-6.042,-6.0264,-6.026,-6.0207,-6.009,-6.0044,-5.9993,-5.9903,-5.9866,-5.9785,-5.9734,-5.9631,-5.9588,-5.9527,-5.9457,-5.9426,-5.9437,-5.9383,-5.9379,-5.9394,-5.9387,-5.942,-5.9422,-5.9394,-5.9394,-5.9393,-5.9394,0,-6.045,-6.0365,-6.028,-6.022,-6.0166,-6.007,-6.0025,-5.9943,-5.9873,-5.981,-5.9728,-5.9656,-5.9607,-5.9569,-5.9534,-5.9444,-5.9434,-5.9442,-5.9338,-5.9336,-5.9368,-5.9421,-5.9458,-5.9464,-5.9393,-5.9393,-5.9393,0,-6.0475,-6.0404,-6.0341,-6.0225,-6.0198,-6.0161,-6.0068,-6.0012,-5.9913,-5.9862,-5.9794,-5.9719,-5.9651,-5.9614,-5.9514,-5.9522,-5.9473,-5.9421,-5.9418,-5.9404,-5.9367,-5.9405,-5.9464,-5.9465,-5.9391,-5.9391,-5.9391,0,-6.0565,-6.0451,-6.0398,-6.0356,-6.0221,-6.0195,-6.0135,-6.0037,-5.9986,-5.9901,-5.9865,-5.9772,-5.972,-5.9644,-5.9542,-5.9526,-5.945,-5.9406,-5.9399,-5.9402,-5.9388,-5.939,-5.9438,-5.936,-5.936,-5.936,-5.936,0,-6.0606,-6.057,-6.0436,-6.0403,-6.0356,-6.0255,-6.0209,-6.014,-6.0052,-5.9996,-5.9905,-5.9853,-5.9723,-5.9652,-5.9571,-5.9496,-5.9474,-5.9425,-5.9403,-5.9433,-5.9439,-5.9399,-5.9395,-5.936,-5.936,-5.936,-5.936,0,-6.0698,-6.0608,-6.0543,-6.042,-6.0387,-6.0358,-6.0248,-6.0207,-6.0131,-6.0061,-6.0038,-5.9915,-5.9827,-5.9718,-5.9593,-5.9537,-5.9469,-5.9438,-5.9506,-5.9493,-5.9492,-5.9492,-5.9514,-5.9509,-5.9438,-5.9439,-5.944,0,-6.0731,-6.0701,-6.0576,-6.0536,-6.0481,-6.0418,-6.0366,-6.0262,-6.021,-6.0093,-6.0064,-5.997,-5.989,-5.975,-5.9644,-5.9545,-5.9509,-5.9522,-5.9493,-5.9521,-5.9504,-5.9507,-5.95,-5.953,-5.9532,-5.9533,-5.9534,0,-6.0795,-6.0751,-6.0686,-6.0602,-6.0545,-6.0472,-6.0394,-6.0364,-6.0242,-6.0186,-6.0099,-6.0037,-5.991,-5.9815,-5.9702,-5.9629,-5.9558,-5.9544,-5.9536,-5.9566,-5.9605,-5.958,-5.9525,-5.9544,-5.9543,-5.9542,-5.9542,-5.9541,-6.0855,-6.0823,-6.073,-6.0657,-6.0589,-6.0518,-6.0473,-6.0391,-6.0319,-6.0214,-6.0153,-6.0066,-5.9957,-5.98,-5.973,-5.9652,-5.9627,-5.9617,-5.9614,-5.9613,-5.962,-5.9619,-5.9631,-5.963,-5.963,-5.963,-5.9629,0,-6.0912,-6.0848,-6.0783,-6.068,-6.062,-6.0566,-6.0475,-6.0426,-6.0353,-6.0263,-6.0187,-6.0081,-5.9986,-5.9871,-5.9766,-5.9726,-5.969,-5.9701,-5.9702,-5.9685,-5.9651,-5.9667,-5.9732,-5.9732,-5.9732,-5.9732,-5.9732,-5.9732,-6.0936,-6.0878,-6.0822,-6.0725,-6.0657,-6.0577,-6.053,-6.0459,-6.0387,-6.0277,-6.0201,-6.0129,-6.0025,-5.9911,-5.9818,-5.9785,-5.9749,-5.977,-5.9727,-5.9697,-5.9688,-5.968,-5.9694,-5.9764,-5.9764,-5.9767,-5.9767,-5.9767]}]]